Location: Angwan Shehu
(11.2514°N, 7.4613°E)
Time: 04:29:28
(UTC+00:00)

Vanguard 3 - Pass Details

Date: 02 August 2021
Orbit: 510 x 3260 km, 33.3° (Epoch: 16 September)

Event Time Altitude Azimuth Distance (km) Brightness Sun altitude
Rises 23:32:50 0° 303° (WNW) 7,218 12.2 -61.2°
Reaches altitude 10° 23:37:46 10° 303° (WNW) 6,181 11.7 -61.2°
Enters shadow 23:47:20 36° 304° (NW) 4,147 10.6 -61.1°
